This is the latest recevied weather packets stored in our database for station/object WD7OO. If no packets are shown the sender has not sent any weather packets the latest 10 day(s).
| Time | Temp. | Humidity | Pressure | Rain* | Wind** | Luminosity | Snow |
|---|---|---|---|---|---|---|---|
| 1788087619 | 17.78° C | 99% | 1017.8 hPa | 0 mm | - | 0 W/m² | - |
| 1788087314 | 17.78° C | 99% | 1017.8 hPa | 0 mm | - | 0 W/m² | - |
| 1788087011 | 18.33° C | 99% | 1017.8 hPa | 0 mm | - | 0 W/m² | - |
| 1788086707 | 18.33° C | 99% | 1017.8 hPa | 0 mm | - | 0 W/m² | - |
| 1788086403 | 18.33° C | 99% | 1017.5 hPa | 0 mm | - | 0 W/m² | - |
| 1788086098 | 18.33° C | 99% | 1017.8 hPa | 0 mm | - | 0 W/m² | - |
| 1788085800 | 18.33° C | 99% | 1017.9 hPa | 0 mm | - | 0 W/m² | - |
| 1788085491 | 18.33° C | 99% | 1017.6 hPa | 0 mm | - | 0 W/m² | - |
| 1788085187 | 18.33° C | 99% | 1017.8 hPa | 0 mm | - | 0 W/m² | - |
| 1788084882 | 18.33° C | 99% | 1017.6 hPa | 0 mm | - | 0 W/m² | - |
| 1788084582 | 18.33° C | 99% | 1017.6 hPa | 0 mm | - | 0 W/m² | - |
| 1788084281 | 18.33° C | 99% | 1017.9 hPa | 0 mm | - | 0 W/m² | - |
| 1788083979 | 18.33° C | 99% | 1017.7 hPa | 0 mm | - | 0 W/m² | - |
| 1788083676 | 18.33° C | 99% | 1017.7 hPa | 1.27 mm | - | 0 W/m² | - |
| 1788083372 | 18.33° C | 99% | 1017.7 hPa | 4.83 mm | - | 0 W/m² | - |
| 1788083068 | 18.33° C | 99% | 1018 hPa | 1.78 mm | - | 0 W/m² | - |
| 1788082763 | 18.33° C | 99% | 1018.5 hPa | 1.27 mm | - | 0 W/m² | - |
| 1788082458 | 18.33° C | 99% | 1018.4 hPa | 1.27 mm | - | 0 W/m² | - |
| 1788082154 | 18.33° C | 99% | 1018.3 hPa | 0 mm | - | 0 W/m² | - |
| 1788081849 | 18.33° C | 99% | 1018.6 hPa | 0 mm | - | 0 W/m² | - |
| 1788081546 | 18.33° C | 99% | 1019 hPa | 1.78 mm | - | 0 W/m² | - |
| 1788081246 | 18.89° C | 98% | 1018.8 hPa | 1.78 mm | - | 0 W/m² | - |
| 1788080944 | 18.89° C | 99% | 1019 hPa | 0 mm | - | 0 W/m² | - |
| 1788080640 | 18.33° C | 99% | 1018.9 hPa | 1.27 mm | - | 0 W/m² | - |
| 1788080334 | 18.33° C | 99% | 1018.8 hPa | 0 mm | - | 0 W/m² | - |
* Rain latest hour (hover to see other rain measurements)
** Current wind speed in m/s (hover to see current wind gust speed)